Time,TemperatureF,DewpointF,PressureIn,WindDirection,WindDirectionDegrees,WindSpeedMPH,WindSpeedGustMPH,Humidity,HourlyPrecipIn,Conditions,Clouds,dailyrainin,SoftwareType,DateUTC
2013-02-16 00:22:00,38.0,-99.9,30.00,North,-999,-999.0,-999.0,-999,-99.99,,,-99.99,,2013-02-16 05:22:00,
2013-02-16 00:32:00,38.0,-99.9,30.00,North,-999,-999.0,-999.0,-999,-99.99,,,-99.99,,2013-02-16 05:32:00,
2013-02-16 00:42:00,38.0,-99.9,30.00,North,-999,-999.0,-999.0,-999,-99.99,,,-99.99,,2013-02-16 05:42:00,
2013-02-16 00:52:00,36.0,-99.9,30.00,North,-999,-999.0,5.0,-999,-99.99,,,-99.99,,2013-02-16 05:52:00,
2013-02-16 01:22:00,36.0,-99.9,30.00,North,-999,-999.0,5.0,-999,-99.99,,,-99.99,,2013-02-16 06:22:00,
2013-02-16 01:32:00,36.0,-99.9,30.00,North,-999,-999.0,5.0,-999,-99.99,,,-99.99,,2013-02-16 06:32:00,
2013-02-16 01:42:00,36.0,-99.9,30.00,North,-999,-999.0,5.0,-999,-99.99,,,-99.99,,2013-02-16 06:42:00,
2013-02-16 01:52:00,35.0,-99.9,29.99,WNW,303,-999.0,5.0,-999,-99.99,,,-99.99,,2013-02-16 06:52:00,
2013-02-16 02:22:00,35.0,-99.9,29.99,WNW,303,-999.0,5.0,-999,-99.99,,,-99.99,,2013-02-16 07:22:00,
2013-02-16 02:32:00,35.0,-99.9,29.99,WNW,303,-999.0,5.0,-999,-99.99,,,-99.99,,2013-02-16 07:32:00,
2013-02-16 02:42:00,35.0,-99.9,29.99,WNW,303,-999.0,5.0,-999,-99.99,,,-99.99,,2013-02-16 07:42:00,
2013-02-16 02:52:00,35.0,-99.9,29.98,WNW,303,2.0,-999.0,-999,-99.99,,,-99.99,,2013-02-16 07:52:00,
2013-02-16 03:22:00,35.0,-99.9,29.98,WNW,303,2.0,-999.0,-999,-99.99,,,-99.99,,2013-02-16 08:22:00,
2013-02-16 03:32:00,35.0,-99.9,29.98,WNW,303,2.0,-999.0,-999,-99.99,,,-99.99,,2013-02-16 08:32:00,
2013-02-16 03:42:00,35.0,-99.9,29.98,WNW,303,2.0,-999.0,-999,-99.99,,,-99.99,,2013-02-16 08:42:00,
2013-02-16 03:52:00,34.0,-99.9,29.96,WNW,296,-999.0,-999.0,-999,-99.99,,,-99.99,,2013-02-16 08:52:00,
2013-02-16 04:21:00,34.0,-99.9,29.96,WNW,296,-999.0,-999.0,-999,-99.99,,,-99.99,,2013-02-16 09:21:00,
2013-02-16 04:32:00,34.0,-99.9,29.96,WNW,296,-999.0,-999.0,-999,-99.99,,,-99.99,,2013-02-16 09:32:00,
2013-02-16 04:43:00,34.0,-99.9,29.96,WNW,296,-999.0,-999.0,-999,-99.99,,,-99.99,,2013-02-16 09:43:00,
2013-02-16 04:52:00,34.0,-99.9,29.98,NW,306,-999.0,-999.0,-999,-99.99,,,-99.99,,2013-02-16 09:52:00,
2013-02-16 05:22:00,34.0,-99.9,29.98,NW,306,-999.0,-999.0,-999,-99.99,,,-99.99,,2013-02-16 10:22:00,
2013-02-16 05:32:00,34.0,-99.9,29.98,NW,306,-999.0,-999.0,-999,-99.99,,,-99.99,,2013-02-16 10:32:00,
2013-02-16 05:42:00,34.0,-99.9,29.98,NW,306,-999.0,-999.0,-999,-99.99,,,-99.99,,2013-02-16 10:42:00,
2013-02-16 05:52:00,34.0,-99.9,29.98,NW,312,-999.0,-999.0,-999,-99.99,,,-99.99,,2013-02-16 10:52:00,
2013-02-16 06:22:00,34.0,-99.9,29.98,NW,312,-999.0,-999.0,-999,-99.99,,,-99.99,,2013-02-16 11:22:00,
2013-02-16 06:32:00,34.0,-99.9,29.98,NW,312,-999.0,-999.0,-999,-99.99,,,-99.99,,2013-02-16 11:32:00,
2013-02-16 06:42:00,34.0,-99.9,29.98,NW,312,-999.0,-999.0,-999,-99.99,,,-99.99,,2013-02-16 11:42:00,
2013-02-16 06:52:00,34.0,-99.9,29.98,NW,311,-999.0,-999.0,-999,-99.99,,,-99.99,,2013-02-16 11:52:00,
2013-02-16 07:32:00,34.0,-99.9,29.98,NW,311,-999.0,-999.0,-999,-99.99,,,-99.99,,2013-02-16 12:32:00,
2013-02-16 07:42:00,34.0,-99.9,29.98,NW,311,-999.0,-999.0,-999,-99.99,,,-99.99,,2013-02-16 12:42:00,
2013-02-16 07:52:00,34.0,-99.9,29.98,NNW,341,-999.0,-999.0,-999,-99.99,,,-99.99,,2013-02-16 12:52:00,
2013-02-16 08:22:00,34.0,-99.9,29.98,NNW,341,-999.0,-999.0,-999,-99.99,,,-99.99,,2013-02-16 13:22:00,
2013-02-16 08:32:00,34.0,-99.9,29.98,NNW,341,-999.0,-999.0,-999,-99.99,,,-99.99,,2013-02-16 13:32:00,
2013-02-16 08:42:00,34.0,-99.9,29.98,NNW,341,-999.0,-999.0,-999,-99.99,,,-99.99,,2013-02-16 13:42:00,
2013-02-16 08:52:00,34.0,-99.9,29.98,NNW,341,-999.0,-999.0,-999,-99.99,,,-99.99,,2013-02-16 13:52:00,
2013-02-16 09:21:00,34.0,-99.9,29.98,NNW,341,-999.0,-999.0,-999,-99.99,,,-99.99,,2013-02-16 14:21:00,
2013-02-16 09:32:00,34.0,-99.9,29.98,NNW,341,-999.0,-999.0,-999,-99.99,,,-99.99,,2013-02-16 14:32:00,
2013-02-16 09:42:00,34.0,-99.9,29.98,NNW,341,-999.0,-999.0,-999,-99.99,,,-99.99,,2013-02-16 14:42:00,
2013-02-16 09:52:00,36.0,-99.9,29.97,NW,312,-999.0,-999.0,-999,-99.99,,,-99.99,,2013-02-16 14:52:00,
2013-02-16 10:22:00,36.0,-99.9,29.97,NW,312,-999.0,-999.0,-999,-99.99,,,-99.99,,2013-02-16 15:22:00,
2013-02-16 10:32:00,36.0,-99.9,29.97,NW,312,-999.0,-999.0,-999,-99.99,,,-99.99,,2013-02-16 15:32:00,
2013-02-16 10:42:00,36.0,-99.9,29.97,NW,312,-999.0,-999.0,-999,-99.99,,,-99.99,,2013-02-16 15:42:00,
2013-02-16 10:52:00,37.0,-99.9,29.96,North,-999,-999.0,-999.0,-999,-99.99,,,-99.99,,2013-02-16 15:52:00,
2013-02-16 11:22:00,37.0,-99.9,29.96,North,-999,-999.0,-999.0,-999,-99.99,,,-99.99,,2013-02-16 16:22:00,
2013-02-16 11:32:00,37.0,-99.9,29.96,North,-999,-999.0,-999.0,-999,-99.99,,,-99.99,,2013-02-16 16:32:00,
2013-02-16 11:42:00,37.0,-99.9,29.96,North,-999,-999.0,-999.0,-999,-99.99,,,-99.99,,2013-02-16 16:42:00,
2013-02-16 11:52:00,39.0,-99.9,29.93,North,354,-999.0,-999.0,-999,-99.99,,,-99.99,,2013-02-16 16:52:00,
2013-02-16 12:22:00,39.0,-99.9,29.93,North,354,-999.0,-999.0,-999,-99.99,,,-99.99,,2013-02-16 17:22:00,
2013-02-16 12:32:00,39.0,-99.9,29.93,North,354,-999.0,-999.0,-999,-99.99,,,-99.99,,2013-02-16 17:32:00,
2013-02-16 12:42:00,39.0,-99.9,29.93,North,354,-999.0,-999.0,-999,-99.99,,,-99.99,,2013-02-16 17:42:00,
2013-02-16 12:52:00,39.0,-99.9,29.91,North,354,-999.0,-999.0,-999,-99.99,,,-99.99,,2013-02-16 17:52:00,
2013-02-16 13:22:00,39.0,-99.9,29.91,North,354,-999.0,-999.0,-999,-99.99,,,-99.99,,2013-02-16 18:22:00,
2013-02-16 13:33:00,39.0,-99.9,29.91,North,354,-999.0,-999.0,-999,-99.99,,,-99.99,,2013-02-16 18:33:00,
2013-02-16 13:42:00,39.0,-99.9,29.91,North,354,-999.0,-999.0,-999,-99.99,,,-99.99,,2013-02-16 18:42:00,
2013-02-16 13:52:00,38.0,-99.9,29.89,North,354,-999.0,-999.0,-999,-99.99,,,-99.99,,2013-02-16 18:52:00,
2013-02-16 14:22:00,38.0,-99.9,29.89,North,354,-999.0,-999.0,-999,-99.99,,,-99.99,,2013-02-16 19:22:00,
2013-02-16 14:32:00,38.0,-99.9,29.89,North,354,-999.0,-999.0,-999,-99.99,,,-99.99,,2013-02-16 19:32:00,
2013-02-16 14:42:00,38.0,-99.9,29.89,North,354,-999.0,-999.0,-999,-99.99,,,-99.99,,2013-02-16 19:42:00,
2013-02-16 14:52:00,38.0,-99.9,29.88,WNW,292,-999.0,-999.0,-999,-99.99,,,-99.99,,2013-02-16 19:52:00,
2013-02-16 15:22:00,38.0,-99.9,29.88,WNW,292,-999.0,-999.0,-999,-99.99,,,-99.99,,2013-02-16 20:22:00,
2013-02-16 15:32:00,38.0,-99.9,29.88,WNW,292,-999.0,-999.0,-999,-99.99,,,-99.99,,2013-02-16 20:32:00,
2013-02-16 15:42:00,38.0,-99.9,29.88,WNW,292,-999.0,-999.0,-999,-99.99,,,-99.99,,2013-02-16 20:42:00,
2013-02-16 15:52:00,36.0,-99.9,29.88,North,352,-999.0,-999.0,-999,-99.99,,,-99.99,,2013-02-16 20:52:00,
2013-02-16 16:22:00,36.0,-99.9,29.88,North,352,-999.0,-999.0,-999,-99.99,,,-99.99,,2013-02-16 21:22:00,
2013-02-16 16:32:00,36.0,-99.9,29.88,North,352,-999.0,-999.0,-999,-99.99,,,-99.99,,2013-02-16 21:32:00,
2013-02-16 16:42:00,36.0,-99.9,29.88,North,352,-999.0,-999.0,-999,-99.99,,,-99.99,,2013-02-16 21:42:00,
2013-02-16 16:52:00,35.0,-99.9,29.86,North,352,-999.0,-999.0,-999,-99.99,,,-99.99,,2013-02-16 21:52:00,
2013-02-16 17:22:00,35.0,-99.9,29.86,North,352,-999.0,-999.0,-999,-99.99,,,-99.99,,2013-02-16 22:22:00,
2013-02-16 17:32:00,35.0,-99.9,29.86,North,352,-999.0,-999.0,-999,-99.99,,,-99.99,,2013-02-16 22:32:00,
2013-02-16 17:42:00,35.0,-99.9,29.86,North,352,-999.0,-999.0,-999,-99.99,,,-99.99,,2013-02-16 22:42:00,
2013-02-16 17:52:00,35.0,-99.9,29.86,North,-999,-999.0,-999.0,-999,-99.99,,,-99.99,,2013-02-16 22:52:00,
2013-02-16 18:22:00,35.0,-99.9,29.86,North,-999,-999.0,-999.0,-999,-99.99,,,-99.99,,2013-02-16 23:22:00,
2013-02-16 18:32:00,35.0,-99.9,29.86,North,-999,-999.0,-999.0,-999,-99.99,,,-99.99,,2013-02-16 23:32:00,
2013-02-16 18:42:00,35.0,-99.9,29.86,North,-999,-999.0,-999.0,-999,-99.99,,,-99.99,,2013-02-16 23:42:00,
2013-02-16 19:22:00,33.0,-99.9,29.85,North,1,-999.0,8.0,-999,-99.99,,,-99.99,,2013-02-17 00:22:00,
2013-02-16 19:32:00,33.0,-99.9,29.85,North,1,-999.0,8.0,-999,-99.99,,,-99.99,,2013-02-17 00:32:00,
2013-02-16 19:42:00,33.0,-99.9,29.85,North,1,-999.0,8.0,-999,-99.99,,,-99.99,,2013-02-17 00:42:00,
2013-02-16 19:52:00,33.0,-99.9,29.85,North,1,-999.0,8.0,-999,-99.99,,,-99.99,,2013-02-17 00:52:00,
2013-02-16 20:22:00,33.0,-99.9,29.84,North,-999,-999.0,-999.0,-999,-99.99,,,-99.99,,2013-02-17 01:22:00,
2013-02-16 20:32:00,33.0,-99.9,29.84,North,-999,-999.0,-999.0,-999,-99.99,,,-99.99,,2013-02-17 01:32:00,
2013-02-16 20:42:00,33.0,-99.9,29.84,North,-999,-999.0,-999.0,-999,-99.99,,,-99.99,,2013-02-17 01:42:00,
2013-02-16 20:52:00,32.0,-99.9,29.83,North,-999,-999.0,-999.0,-999,-99.99,,,-99.99,,2013-02-17 01:52:00,
2013-02-16 21:21:00,32.0,-99.9,29.83,North,-999,-999.0,-999.0,-999,-99.99,,,-99.99,,2013-02-17 02:21:00,
2013-02-16 21:32:00,32.0,-99.9,29.83,North,-999,-999.0,-999.0,-999,-99.99,,,-99.99,,2013-02-17 02:32:00,
2013-02-16 21:42:00,32.0,-99.9,29.83,North,-999,-999.0,-999.0,-999,-99.99,,,-99.99,,2013-02-17 02:42:00,
2013-02-16 21:52:00,32.0,-99.9,29.83,NNW,331,-999.0,-999.0,-999,-99.99,,,-99.99,,2013-02-17 02:52:00,
2013-02-16 22:21:00,32.0,-99.9,29.83,NNW,331,-999.0,-999.0,-999,-99.99,,,-99.99,,2013-02-17 03:21:00,
2013-02-16 22:32:00,32.0,-99.9,29.83,NNW,331,-999.0,-999.0,-999,-99.99,,,-99.99,,2013-02-17 03:32:00,
2013-02-16 22:42:00,32.0,-99.9,29.83,NNW,331,-999.0,-999.0,-999,-99.99,,,-99.99,,2013-02-17 03:42:00,
2013-02-16 22:52:00,31.0,-99.9,29.80,NNW,328,-999.0,2.0,-999,-99.99,,,-99.99,,2013-02-17 03:52:00,
2013-02-16 23:22:00,31.0,-99.9,29.80,NNW,328,-999.0,2.0,-999,-99.99,,,-99.99,,2013-02-17 04:22:00,
2013-02-16 23:32:00,31.0,-99.9,29.80,NNW,328,-999.0,2.0,-999,-99.99,,,-99.99,,2013-02-17 04:32:00,
2013-02-16 23:42:00,31.0,-99.9,29.80,NNW,328,-999.0,2.0,-999,-99.99,,,-99.99,,2013-02-17 04:42:00,
2013-02-16 23:52:00,30.0,-99.9,29.78,NW,308,-999.0,-999.0,-999,-99.99,,,-99.99,,2013-02-17 04:52:00,